Wind_Speed
17 17 18 18 17 17 17 17 16 16 16 16 17 18 18 18 18 19 19 19 18 19 19 20 21 22 23 24 24 24 23 24 22 23 22 21 19 19 17 17 16 17 18 18 18
22 21 21 22 23 23 24 23 23 23 22 22 22 22 22 22 23 23 22 23 24 23 23 23 24 25 27 27 27 29 27 27 28 28 26 25 25 25 22 21 20 22 20 21 22
29 28 27 27 28 29 28 29 29 28 27 27 27 26 25 24 26 25 26 25 25 25 27 27 28 29 29 30 30 30 29 30 31 31 31 29 29 29 28 21 26 28 26 22 24
35 35 35 34 34 34 35 35 35 34 33 32 30 28 27 26 28 28 28 28 27 27 28 28 29 30 31 32 34 32 30 33 30 35 34 33 32 31 31 25 29 29 28 25 26
42 42 42 41 40 39 39 38 38 37 37 36 35 33 28 23 29 30 29 30 29 29 29 30 29 32 33 34 35 33 32 32 32 33 36 36 33 35 27 29 31 29 29 30 31
37 37 38 37 37 36 36 37 36 35 35 35 34 33 31 24 31 33 31 31 31 30 31 32 33 36 36 35 37 37 34 31 29 30 34 37 35 35 17 31 30 28 28 28 29
38 37 37 38 38 38 38 38 37 36 36 37 37 36 32 28 33 36 37 37 35 34 33 35 37 40 39 37 37 39 37 32 24 27 35 40 36 23 23 32 29 28 28 28 26
42 41 40 39 38 38 39 39 38 38 38 40 42 43 40 36 38 39 41 40 39 38 39 38 42 44 41 38 41 40 41 35 22 31 38 43 42 21 30 34 31 32 30 29 29
44 44 44 43 43 42 43 43 43 43 44 46 47 48 46 40 38 40 41 41 43 42 42 43 47 47 42 40 46 39 47 45 39 29 39 44 48 29 34 39 39 36 35 33 30
48 48 47 46 46 46 46 46 48 48 48 49 51 50 49 44 43 41 41 42 44 45 47 48 51 50 42 42 48 45 49 48 45 30 40 49 50 43 35 42 43 40 37 36 34
52 52 52 51 51 51 51 51 52 53 52 51 53 52 50 49 46 43 40 41 44 45 46 49 53 50 40 43 47 51 51 50 45 40 49 49 50 44 38 34 35 35 36 36 37
53 55 56 55 55 54 54 55 56 55 54 51 50 54 52 51 50 46 44 43 44 45 46 47 52 45 47 47 49 51 52 53 54 50 54 53 51 48 43 39 32 30 30 29 32
59 56 57 56 56 56 54 56 55 56 58 53 54 55 54 53 53 49 47 45 44 45 44 48 50 48 51 51 51 50 53 54 56 52 53 55 55 49 42 36 34 32 34 35 32
60 61 60 58 57 56 56 55 56 56 60 61 59 56 53 56 56 50 50 47 46 45 42 51 44 44 49 52 45 53 44 49 52 56 57 55 53 47 42 41 39 38 38 32 33
59 60 63 61 60 60 59 59 58 59 64 62 61 58 50 44 44 40 43 44 43 44 46 47 47 45 48 48 52 53 55 54 54 57 58 56 60 55 52 46 39 34 32 36 30
55 54 59 61 59 57 60 66 65 64 72 66 65 62 60 54 49 49 52 51 49 49 51 46 49 52 48 49 52 53 54 56 57 58 60 57 57 51 55 57 59 53 44 48 51
59 60 54 57 61 61 56 55 57 67 70 69 67 62 59 55 55 53 50 50 53 54 53 54 51 53 51 50 51 52 55 58 63 65 62 63 61 56 61 60 65 65 65 62 58
62 63 64 57 54 57 57 55 58 67 65 65 63 61 60 58 59 57 58 57 57 60 62 63 60 61 58 55 56 56 57 61 64 65 68 68 73 64 62 63 67 66 68 67 69
71 67 65 62 63 59 58 61 62 63 63 65 66 66 63 63 61 63 62 62 64 62 60 64 68 68 65 61 60 61 60 54 60 62 70 76 76 73 68 68 66 67 72 72 66
74 70 73 72 71 70 69 74 71 66 60 66 73 72 71 68 69 69 70 67 67 68 66 66 70 69 71 70 71 68 67 65 63 65 67 67 68 75 75 72 70 70 68 67 65
70 68 70 67 66 69 77 80 82 75 74 72 71 76 78 76 74 70 71 71 69 70 71 71 73 76 78 76 72 72 74 76 75 75 78 78 75 59 61 69 69 65 65 61 51
70 71 69 69 69 67 71 67 68 66 69 69 69 70 72 72 77 72 72 73 68 68 74 71 70 64 77 77 74 75 73 70 69 73 70 67 71 59 53 47 57 57 61 53 45
67 65 66 67 70 69 67 66 66 65 65 68 69 68 67 70 72 74 71 64 64 66 69 69 69 70 75 76 74 63 61 67 72 71 75 78 78 66 61 60 60 66 65 58 59
69 70 68 67 67 68 68 67 66 62 66 68 69 66 67 68 67 70 67 66 66 68 69 68 72 75 69 69 73 75 75 70 73 76 76 74 74 68 61 57 61 64 73 73 70
70 69 69 70 69 68 67 67 67 66 65 63 67 65 66 67 68 69 70 67 68 66 64 62 67 68 71 73 71 74 72 68 65 67 70 70 72 72 68 65 69 71 79 82 83
68 68 70 69 67 68 66 66 66 62 65 67 68 65 65 67 65 67 66 65 64 63 61 57 60 66 67 64 65 71 71 72 66 68 65 77 79 69 69 64 60 65 75 79 77
67 70 70 69 69 69 67 67 67 65 65 65 66 66 64 65 66 66 65 64 64 64 62 66 68 69 76 73 78 82 73 67 67 66 67 68 69 61 59 63 67 67 69 71 80
Wind_Direction
256 256 253 253 262 270 278 281 281 284 287 289 288 287 289 293 295 293 294 292 293 293 294 296 299 298 298 299 300 300 303 304 305 306 305 305 304 302 305 306 302 306 304 307 309
257 258 257 260 266 272 278 282 284 286 288 289 288 287 286 287 289 289 289 290 290 289 288 289 291 291 291 292 292 294 298 297 300 299 298 298 295 295 298 297 282 294 290 295 295
261 262 265 266 269 272 275 279 283 284 284 284 285 283 283 285 285 286 286 285 286 287 286 286 287 287 287 288 288 293 295 293 294 293 293 291 290 293 295 289 279 287 290 290 282
264 266 267 269 270 272 275 277 279 281 281 281 281 279 280 282 284 280 282 284 284 285 286 286 286 287 286 287 288 292 292 288 291 292 292 287 288 289 292 286 282 286 286 279 269
262 263 265 266 267 268 269 271 273 275 276 278 278 277 277 282 279 282 282 283 282 284 286 289 291 286 288 290 289 291 287 288 289 292 290 287 287 286 297 285 281 284 285 281 275
260 262 264 265 266 268 269 270 270 270 270 272 272 274 276 279 277 284 282 281 281 284 284 287 288 289 288 290 290 290 290 289 292 294 289 285 279 290 298 277 283 286 287 285 280
261 262 263 265 265 267 268 269 270 271 272 273 274 273 273 275 278 279 279 279 280 280 281 282 285 286 286 289 289 288 286 286 295 286 281 277 280 298 285 273 280 281 290 293 289
260 263 262 263 265 267 268 270 271 272 273 274 276 276 276 275 276 274 273 275 276 276 276 279 281 281 286 290 290 287 287 288 272 268 274 277 283 280 277 276 274 278 280 284 282
262 262 262 262 263 264 266 268 270 271 272 274 275 277 278 278 274 273 273 273 274 274 273 274 277 279 282 288 286 293 289 283 280 284 285 282 283 282 271 270 272 272 274 276 275
263 263 263 263 263 263 264 266 268 270 272 274 275 277 279 278 277 273 271 273 273 273 273 276 275 275 280 286 287 286 283 286 288 292 283 280 279 276 266 271 275 279 277 275 273
262 263 263 264 265 266 267 267 269 271 271 273 276 277 279 278 276 273 273 271 271 271 274 272 274 277 282 276 278 280 283 285 289 291 283 278 278 283 282 278 284 283 280 276 274
265 264 264 263 264 265 267 268 269 269 270 271 274 278 277 277 276 276 273 270 267 269 267 271 273 278 273 273 274 277 281 283 286 287 280 282 280 282 289 292 291 284 282 273 272
265 263 263 264 265 265 265 267 268 270 273 271 273 276 275 275 278 279 276 271 269 267 270 267 271 273 275 273 273 275 277 281 279 280 279 285 284 286 288 291 288 284 280 284 276
266 260 261 262 263 264 266 266 267 267 270 273 272 270 273 275 276 277 275 272 270 271 269 269 272 274 276 274 276 271 272 272 276 278 283 283 285 288 292 292 289 288 287 274 273
260 261 262 262 261 263 266 269 267 270 271 272 273 277 279 276 276 273 269 268 270 273 275 277 276 273 272 276 272 274 272 271 272 273 275 278 288 299 303 298 294 290 289 285 263
263 264 264 262 262 266 271 270 268 272 269 269 274 277 277 273 275 274 269 270 270 271 278 279 271 275 280 277 277 276 274 274 271 268 272 278 282 280 290 295 300 294 288 283 284
267 267 265 260 261 264 269 272 271 265 267 269 271 271 272 272 275 273 269 269 271 276 284 278 273 278 279 277 279 277 275 274 273 272 275 277 275 278 281 289 291 291 291 292 288
265 267 266 264 260 264 266 265 264 266 270 268 268 268 268 269 272 276 275 269 272 277 279 281 278 275 279 279 278 277 275 274 277 279 276 274 271 275 279 283 284 286 285 287 288
260 258 260 259 261 265 273 266 263 268 270 269 270 267 263 269 276 275 272 270 274 276 276 276 274 276 279 279 280 277 272 278 272 270 271 274 277 279 281 280 278 280 279 280 288
276 280 262 272 276 273 270 261 266 274 276 275 270 267 263 268 271 274 274 270 273 275 277 273 273 273 275 277 277 276 275 272 271 274 272 270 270 282 287 283 281 281 281 282 283
272 271 275 273 273 271 272 272 277 277 281 282 278 275 273 275 275 277 276 274 274 275 276 279 280 276 277 277 281 279 276 276 277 276 279 281 276 280 275 276 277 271 270 275 279
270 271 271 270 266 267 272 276 277 275 275 276 277 278 281 277 277 275 274 275 275 274 274 275 278 270 273 276 277 276 278 280 282 285 282 282 275 276 273 271 267 273 281 273 264
272 270 268 266 267 270 270 270 268 269 271 271 269 270 271 272 268 273 272 272 272 271 271 272 271 274 275 274 274 273 271 275 279 280 278 280 281 286 281 265 261 273 276 265 254
272 274 273 273 274 272 271 270 268 268 268 267 269 269 270 270 269 272 270 270 267 268 268 269 269 270 270 268 274 270 270 270 273 275 278 276 281 277 274 268 268 263 256 258 262
274 274 273 273 272 272 271 271 270 271 269 266 268 268 270 270 270 271 271 270 271 271 270 271 273 272 270 271 271 270 270 267 270 274 274 281 275 276 275 267 256 250 253 255 257
277 276 274 274 273 272 271 272 270 269 266 265 267 267 268 269 270 270 270 270 270 269 271 270 265 271 268 268 269 268 269 278 268 266 267 267 268 270 264 263 264 260 255 254 260
275 274 273 273 273 272 272 271 269 267 265 267 267 269 269 270 270 272 271 271 271 271 271 271 272 272 265 268 272 270 275 273 263 264 270 272 268 269 272 267 264 260 257 259 262
Height
5877 5878 5879 5879 5879 5879 5880 5880 5880 5880 5880 5880 5881 5880 5880 5879 5879 5878 5877 5877 5876 5875 5874 5873 5872 5872 5870 5869 5868 5867 5866 5865 5865 5864 5863 5862 5860 5858 5858 5857 5855 5855 5852 5851 5850
5875 5875 5876 5876 5876 5877 5876 5876 5877 5877 5877 5877 5876 5876 5876 5875 5875 5874 5874 5873 5872 5871 5870 5869 5868 5867 5866 5865 5864 5862 5862 5860 5860 5859 5858 5857 5856 5854 5855 5852 5850 5850 5849 5847 5846
5870 5871 5872 5872 5872 5873 5872 5872 5872 5873 5872 5872 5872 5871 5871 5871 5870 5869 5869 5868 5867 5866 5865 5865 5864 5862 5861 5859 5858 5859 5858 5854 5854 5852 5851 5850 5850 5849 5849 5848 5843 5844 5843 5844 5842
5864 5865 5866 5866 5867 5867 5867 5867 5867 5867 5867 5866 5866 5866 5866 5867 5867 5863 5863 5862 5861 5861 5860 5859 5859 5857 5855 5853 5851 5853 5852 5848 5850 5845 5844 5842 5843 5844 5842 5841 5838 5838 5837 5836 5835
5858 5859 5860 5860 5861 5861 5861 5861 5861 5861 5861 5860 5860 5860 5861 5863 5859 5858 5858 5857 5856 5855 5854 5853 5853 5849 5849 5847 5844 5845 5845 5843 5842 5840 5836 5834 5836 5833 5838 5831 5831 5830 5830 5828 5827
5850 5851 5852 5853 5854 5854 5854 5854 5854 5854 5853 5854 5853 5854 5855 5860 5854 5852 5852 5851 5850 5850 5849 5847 5845 5843 5842 5841 5838 5837 5837 5838 5838 5835 5830 5825 5828 5826 5833 5822 5824 5824 5821 5820 5820
5843 5844 5845 5846 5847 5847 5847 5846 5847 5846 5846 5846 5845 5846 5849 5852 5849 5847 5844 5844 5844 5842 5842 5840 5837 5834 5834 5835 5832 5829 5828 5829 5833 5828 5821 5816 5819 5823 5822 5816 5817 5816 5814 5813 5812
5836 5836 5837 5838 5839 5839 5839 5839 5839 5839 5838 5837 5837 5836 5840 5844 5842 5841 5837 5837 5836 5835 5834 5832 5828 5825 5826 5827 5822 5821 5818 5820 5827 5820 5814 5808 5807 5820 5813 5808 5810 5808 5807 5805 5805
5827 5828 5828 5829 5830 5831 5831 5831 5831 5831 5831 5829 5828 5826 5829 5835 5834 5831 5830 5830 5827 5827 5825 5823 5818 5817 5820 5820 5811 5816 5806 5806 5810 5817 5807 5800 5794 5811 5806 5800 5799 5800 5799 5798 5798
5818 5818 5819 5819 5820 5821 5821 5821 5820 5821 5821 5820 5818 5819 5819 5823 5823 5823 5821 5820 5819 5818 5817 5815 5809 5807 5813 5812 5802 5803 5796 5796 5796 5809 5798 5786 5783 5789 5797 5792 5790 5792 5792 5790 5789
5807 5808 5808 5809 5810 5812 5812 5812 5812 5811 5811 5811 5809 5809 5808 5808 5809 5811 5812 5811 5808 5807 5807 5802 5800 5800 5806 5800 5796 5791 5788 5786 5790 5793 5780 5776 5769 5774 5780 5784 5784 5784 5783 5782 5778
5796 5797 5797 5798 5798 5799 5801 5801 5799 5798 5797 5799 5801 5796 5797 5796 5795 5798 5801 5800 5798 5797 5794 5794 5788 5797 5791 5790 5787 5784 5781 5778 5777 5780 5772 5765 5759 5765 5770 5771 5775 5773 5771 5771 5770
5783 5785 5785 5786 5786 5787 5787 5788 5788 5787 5784 5790 5787 5786 5787 5786 5785 5787 5787 5786 5786 5785 5787 5781 5780 5782 5781 5779 5777 5776 5773 5771 5763 5765 5762 5757 5745 5757 5765 5765 5762 5764 5763 5761 5761
5770 5771 5772 5773 5774 5774 5775 5775 5776 5775 5773 5772 5774 5776 5778 5777 5776 5774 5774 5774 5773 5774 5773 5769 5777 5772 5768 5765 5766 5760 5763 5759 5757 5754 5747 5750 5731 5745 5756 5758 5758 5754 5753 5753 5749
5757 5759 5758 5759 5759 5759 5762 5763 5763 5765 5759 5758 5756 5760 5765 5766 5765 5765 5762 5762 5761 5763 5763 5763 5763 5760 5757 5760 5754 5752 5750 5750 5748 5745 5741 5736 5735 5731 5733 5742 5745 5748 5748 5745 5742
5745 5744 5745 5745 5747 5746 5747 5747 5750 5754 5738 5744 5745 5749 5750 5752 5754 5752 5751 5750 5750 5748 5748 5750 5749 5747 5746 5744 5743 5741 5738 5736 5733 5731 5731 5731 5729 5723 5730 5722 5722 5729 5732 5733 5727
5732 5733 5733 5733 5734 5733 5734 5734 5736 5731 5731 5733 5732 5733 5736 5736 5734 5735 5737 5737 5736 5733 5734 5734 5733 5735 5732 5730 5731 5728 5726 5720 5717 5716 5722 5720 5719 5719 5717 5719 5715 5712 5708 5711 5714
5717 5719 5722 5720 5718 5718 5718 5721 5719 5716 5718 5721 5720 5721 5720 5720 5718 5717 5717 5721 5720 5719 5716 5715 5717 5718 5718 5717 5715 5713 5710 5706 5697 5701 5703 5704 5698 5707 5711 5710 5704 5703 5701 5697 5691
5703 5703 5706 5709 5705 5701 5699 5701 5708 5711 5711 5711 5709 5704 5709 5706 5703 5701 5699 5703 5703 5703 5701 5696 5699 5699 5699 5698 5702 5700 5695 5697 5681 5682 5675 5685 5687 5695 5699 5696 5695 5693 5689 5685 5684
5684 5685 5692 5689 5686 5681 5677 5684 5691 5699 5697 5692 5690 5689 5691 5690 5685 5683 5683 5690 5687 5686 5683 5678 5675 5682 5681 5681 5682 5679 5682 5674 5669 5658 5655 5658 5669 5674 5685 5685 5679 5678 5676 5674 5669
5669 5668 5675 5672 5665 5663 5661 5669 5671 5678 5673 5671 5671 5666 5674 5671 5666 5665 5661 5671 5672 5669 5665 5659 5655 5669 5658 5663 5663 5658 5654 5655 5651 5644 5635 5634 5636 5674 5671 5665 5660 5661 5657 5654 5654
5652 5653 5656 5653 5649 5647 5647 5655 5658 5660 5656 5650 5648 5649 5648 5652 5646 5643 5644 5647 5654 5653 5646 5644 5634 5634 5643 5647 5643 5637 5637 5637 5624 5625 5619 5615 5609 5652 5657 5654 5648 5642 5641 5637 5633
5631 5635 5637 5632 5627 5631 5633 5636 5635 5641 5638 5633 5629 5631 5631 5631 5622 5626 5632 5637 5631 5631 5630 5627 5619 5610 5614 5628 5628 5618 5624 5619 5614 5605 5594 5591 5592 5619 5627 5635 5638 5629 5619 5611 5608
5614 5613 5615 5610 5615 5612 5614 5616 5615 5623 5620 5615 5612 5612 5611 5608 5613 5604 5609 5612 5611 5610 5613 5607 5604 5600 5596 5599 5606 5601 5603 5606 5598 5584 5580 5575 5577 5588 5598 5605 5610 5602 5585 5586 5585
5595 5594 5594 5595 5598 5597 5594 5595 5598 5602 5599 5600 5592 5595 5593 5586 5588 5588 5588 5590 5592 5591 5590 5589 5582 5585 5581 5579 5577 5575 5578 5582 5577 5570 5561 5561 5558 5564 5568 5570 5570 5569 5564 5563 5565
5575 5576 5576 5578 5577 5576 5579 5578 5576 5585 5577 5579 5570 5577 5576 5572 5569 5569 5570 5573 5573 5572 5569 5569 5564 5562 5559 5565 5559 5552 5559 5566 5557 5554 5545 5543 5539 5541 5536 5539 5544 5544 5542 5540 5539
5558 5556 5552 5559 5557 5557 5563 5559 5559 5559 5560 5558 5558 5555 5558 5555 5551 5548 5550 5553 5555 5554 5554 5550 5549 5544 5532 5547 5535 5524 5548 5541 5536 5532 5522 5520 5518 5521 5522 5525 5522 5520 5521 5520 5517